FW5910 Weather Reports


Display with metric or nautical units.
time (UTC)temp
F
wind
direction
speed
MPH
gust
MPH
rain 1hr
in
rain 24hr
in
rain mn
in
humidity
%
barometer
mb
20260904091733 48 245 2.0 3.0 0.00 0.16 0.00 82 1006.3
20260904091232 49 245 2.0 4.0 0.00 0.16 0.00 82 1006.2
20260904090235 49 244 2.0 4.0 0.00 0.16 0.00 81 1006.3
20260904085731 50 244 1.0 5.0 0.00 0.16 0.00 81 1006.5
20260904085232 50 236 1.0 5.0 0.00 0.16 0.00 81 1006.3
20260904084730 50 211 1.0 5.0 0.00 0.16 0.00 81 1006.6
20260904084233 49 213 1.0 3.0 0.00 0.16 0.00 82 1006.7
20260904083730 49 221 1.0 3.0 0.00 0.16 0.00 81 1006.7
20260904083232 50 225 1.0 3.0 0.00 0.16 0.00 81 1006.8
20260904082731 50 225 0.0 3.0 0.00 0.16 0.00 81 1006.7
20260904082235 50 224 1.0 3.0 0.00 0.16 0.00 81 1006.7
20260904081730 50 224 1.0 3.0 0.00 0.16 0.00 81 1006.7
20260904081232 49 223 0.0 2.0 0.00 0.16 0.00 81 1006.8
20260904080730 49 223 1.0 4.0 0.00 0.16 0.00 81 1006.9
20260904080232 49 223 2.0 4.0 0.00 0.16 0.00 82 1006.9
20260904075731 49 217 2.0 4.0 0.00 0.16 0.00 82 1007.0
20260904075238 49 211 1.0 4.0 0.00 0.16 0.00 82 1006.9
20260904074733 49 207 0.0 4.0 0.00 0.16 0.00 80 1007.1
20260904074234 49 327 0.0 0.0 0.00 0.16 0.00 80 1007.0
20260904072232 50 328 0.0 0.0 0.00 0.16 0.00 81 1006.9
20260904071730 50 328 0.0 0.0 0.00 0.16 0.00 80 1007.0
20260904071231 50 328 0.0 0.0 0.00 0.16 0.00 80 1007.0
20260904070730 50 328 0.0 0.0 0.00 0.16 0.00 81 1006.9
20260904070232 51 328 0.0 0.0 0.00 0.16 0.00 81 1007.0
20260904065232 51 329 0.0 0.0 0.00 0.16 0.00 80 1006.9
20260904064730 51 329 0.0 2.0 0.00 0.16 0.00 81 1007.0
20260904063236 51 328 1.0 4.0 0.00 0.16 0.00 80 1007.1
20260904062731 51 327 2.0 4.0 0.00 0.16 0.00 80 1007.2
20260904062232 52 335 2.0 4.0 0.00 0.16 0.00 81 1007.0
20260904061730 51 332 1.0 4.0 0.00 0.16 0.00 81 1007.1
20260904061233 51 39 1.0 3.0 0.00 0.16 0.00 82 1007.2
20260904060729 51 332 2.0 4.0 0.00 0.16 0.00 81 1007.5
20260904060234 51 332 2.0 4.0 0.00 0.16 0.00 82 1007.5
20260904055731 51 331 2.0 4.0 0.00 0.16 0.16 82 1007.5
20260904054730 51 327 1.0 3.0 0.00 0.16 0.16 81 1007.8
20260904054233 51 327 2.0 3.0 0.00 0.16 0.16 81 1007.8
20260904053232 52 341 0.0 3.0 0.00 0.16 0.16 80 1007.9
20260904052731 52 338 1.0 3.0 0.00 0.16 0.16 80 1008.1
20260904051730 52 0 0.0 3.0 0.00 0.16 0.16 79 1008.2
20260904051233 52 338 1.0 2.0 0.00 0.16 0.16 79 1008.3
20260904050732 53 338 1.0 3.0 0.00 0.16 0.16 79 1008.2
20260904050232 53 338 1.0 4.0 0.00 0.16 0.16 79 1008.3
20260904045734 53 0 1.0 4.0 0.00 0.16 0.16 79 1008.3
20260904045234 53 336 0.0 0.0 0.00 0.16 0.16 77 1008.4
20260904044232 54 336 0.0 0.0 0.00 0.16 0.16 75 1008.6
20260903225235 63 0 1.0 4.0 0.00 0.20 0.16 65 1010.1
20260903224733 63 0 1.0 4.0 0.00 0.20 0.16 67 1010.1
20260903224233 63 0 1.0 4.0 0.00 0.20 0.16 67 1010.0
20260903223730 63 0 1.0 3.0 0.00 0.21 0.16 66 1010.0
20260903223233 63 0 1.0 3.0 0.00 0.22 0.16 67 1010.0
20260903222730 63 0 0.0 2.0 0.00 0.23 0.16 69 1010.0
20260903221730 63 0 0.0 0.0 0.00 0.28 0.16 67 1010.1
20260903221240 63 0 0.0 0.0 0.00 0.30 0.16 69 1010.1
20260903220731 62 244 0.0 0.0 0.00 0.33 0.16 70 1010.2
20260903215230 62 242 0.0 0.0 0.00 0.41 0.16 73 1010.2
20260903214731 61 242 0.0 0.0 0.00 0.44 0.16 73 1010.2
20260903214230 61 242 0.0 0.0 0.00 0.46 0.16 74 1010.1
20260903213232 61 245 0.0 2.0 0.00 0.55 0.16 73 1010.1
20260903212731 61 0 0.0 2.0 0.00 0.60 0.16 72 1010.1
20260903212231 62 0 0.0 0.0 0.00 0.63 0.16 70 1010.1
20260903211734 62 0 0.0 0.0 0.00 0.66 0.16 70 1010.0
20260903211233 62 0 0.0 1.0 0.00 0.70 0.16 71 1010.1
20260903210236 62 0 2.0 5.0 0.00 0.75 0.16 70 1010.2
20260903203735 60 172 1.0 3.0 0.00 0.87 0.16 76 1010.2
20260903203228 60 186 1.0 0.0 0.00 0.87 0.16 76 1010.2
20260903202934 60 217 2.0 5.0 0.00 0.87 0.16 76 1010.2
20260903202437 60 0 2.0 5.0 0.00 0.87 0.16 78 1010.2
20260903201935 59 0 2.0 5.0 0.00 0.87 0.16 78 1010.3
20260903201435 59 0 2.0 5.0 0.00 0.87 0.16 80 1010.3
20260903200936 59 0 2.0 6.0 0.00 0.87 0.16 80 1010.4
20260903200436 59 0 2.0 6.0 0.00 0.87 0.16 81 1010.5
20260903195432 58 0 2.0 5.0 0.00 0.87 0.16 78 1010.6
20260903194933 58 0 1.0 5.0 0.00 0.87 0.16 80 1010.7
20260903194432 58 0 1.0 3.0 0.00 0.87 0.16 81 1010.5
20260903193931 58 0 2.0 4.0 0.00 0.87 0.16 81 1010.5
20260903193434 58 0 4.0 8.0 0.04 0.87 0.16 80 1010.6
20260903192934 58 0 4.0 8.0 0.07 0.87 0.16 79 1010.6
20260903191934 57 0 3.0 8.0 0.10 0.87 0.16 80 1010.7
20260903190431 56 0 3.0 7.0 0.11 0.87 0.16 82 1010.8
20260903185932 55 0 4.0 7.0 0.12 0.87 0.16 82 1010.8
20260903185432 55 121 3.0 6.0 0.12 0.87 0.16 81 1010.9
20260903184931 54 0 2.0 6.0 0.12 0.87 0.16 84 1010.9
20260903184432 54 0 2.0 6.0 0.12 0.87 0.16 83 1011.2
20260903183930 54 0 2.0 5.0 0.12 0.87 0.15 83 1010.8
20260903183434 55 0 2.0 5.0 0.08 0.83 0.12 83 1010.9
20260903182931 55 0 2.0 5.0 0.05 0.80 0.06 83 1010.8
20260903182431 55 0 2.0 5.0 0.02 0.77 0.06 82 1010.6
20260903180931 56 0 1.0 4.0 0.02 0.77 0.06 82 1010.7
20260903180433 56 0 1.0 4.0 0.01 0.76 0.05 82 1010.8
20260903175435 56 0 1.0 3.0 0.00 0.75 0.04 81 1010.8
20260903174931 56 0 1.0 4.0 0.00 0.75 0.04 81 1010.7
20260903173930 56 0 2.0 8.0 0.00 0.75 0.04 82 1010.8
20260903173432 56 0 2.0 8.0 0.00 0.75 0.04 82 1010.9
20260903172931 56 0 2.0 6.0 0.00 0.75 0.04 82 1010.9
20260903172434 56 0 2.0 6.0 0.00 0.75 0.04 82 1010.8
20260903171930 56 0 1.0 5.0 0.00 0.75 0.04 82 1010.8
20260903171431 55 0 1.0 4.0 0.00 0.75 0.04 83 1010.6
20260903170430 55 0 1.0 5.0 0.00 0.75 0.04 83 1010.7
20260903165931 55 0 1.0 4.0 0.00 0.75 0.04 83 1010.6
20260903165432 55 0 2.0 4.0 0.00 0.75 0.04 83 1010.6
20260903164932 55 0 2.0 4.0 0.00 0.75 0.04 83 1010.6
20260903163931 55 206 1.0 4.0 0.00 0.75 0.04 83 1010.4
20260903163434 54 209 1.0 3.0 0.00 0.75 0.04 83 1010.3
20260903162933 54 211 0.0 3.0 0.00 0.75 0.04 83 1010.5
20260903162435 54 217 1.0 4.0 0.01 0.75 0.04 84 1010.6
20260903161934 54 218 1.0 4.0 0.01 0.75 0.04 83 1010.4
20260903160934 54 240 2.0 5.0 0.01 0.75 0.04 83 1010.2
20260903155932 55 237 2.0 6.0 0.01 0.75 0.04 83 1010.3
20260903155434 54 210 2.0 5.0 0.01 0.75 0.04 83 1010.3
20260903154930 54 216 2.0 7.0 0.01 0.75 0.04 84 1010.2
20260903154431 54 225 2.0 7.0 0.01 0.75 0.04 84 1010.2
20260903153434 54 211 2.0 7.0 0.01 0.75 0.04 84 1010.0
20260903152931 54 237 2.0 5.0 0.01 0.75 0.04 84 1010.0
20260903152430 54 232 3.0 5.0 0.00 0.74 0.03 84 1010.0
20260903151931 54 207 2.0 5.0 0.00 0.74 0.03 84 1010.0
20260903151430 53 206 2.0 5.0 0.00 0.74 0.03 85 1009.8
20260903150933 53 208 2.0 5.0 0.00 0.74 0.03 85 1009.8
20260903150432 53 211 2.0 5.0 0.00 0.74 0.03 85 1009.7
20260903145930 53 214 2.0 5.0 0.00 0.74 0.03 85 1009.7
20260903144933 52 196 2.0 5.0 0.00 0.74 0.03 85 1009.6
20260903144430 52 220 1.0 4.0 0.01 0.74 0.03 85 1009.6
20260903143430 52 215 2.0 4.0 0.01 0.74 0.03 85 1009.7
20260903142931 52 183 1.0 4.0 0.01 0.74 0.03 85 1009.7
20260903142431 52 175 1.0 4.0 0.02 0.74 0.03 85 1009.6
20260903141930 52 126 2.0 4.0 0.02 0.74 0.03 85 1009.6
20260903140931 51 97 1.0 4.0 0.02 0.74 0.03 85 1009.6
20260903140431 51 14 0.0 0.0 0.02 0.74 0.03 85 1009.6
20260903135931 51 11 0.0 0.0 0.02 0.74 0.03 85 1009.7
20260903135430 51 11 0.0 0.0 0.02 0.74 0.03 85 1009.8
20260903134932 51 11 0.0 0.0 0.02 0.74 0.03 85 1009.6
20260903134433 51 11 0.0 0.0 0.01 0.73 0.02 85 1009.6
20260903133933 51 11 0.0 0.0 0.01 0.73 0.02 85 1009.5
20260903133426 51 11 0.0 0.0 0.01 0.73 0.02 85 1009.5
20260903132926 51 30 0.0 0.0 0.02 0.73 0.02 85 1009.3
20260903132426 51 30 0.0 0.0 0.01 0.72 0.01 85 1009.4
20260903131926 51 30 0.0 0.0 0.01 0.72 0.01 85 1009.2
20260903131426 51 30 0.0 0.0 0.01 0.72 0.01 85 1009.1
20260903130927 51 30 0.0 0.0 0.01 0.72 0.01 85 1009.1
20260903130427 51 30 0.0 0.0 0.01 0.72 0.01 85 1009.1
20260903125928 51 30 0.0 0.0 0.01 0.72 0.01 85 1009.0
20260903125427 51 30 0.0 0.0 0.01 0.72 0.01 85 1008.9
20260903124927 51 30 0.0 0.0 0.01 0.72 0.01 85 1008.9
20260903123924 51 329 1.0 3.0 0.01 0.72 0.01 85 1008.7
20260903123424 51 286 1.0 3.0 0.01 0.72 0.01 85 1008.7
20260903122922 51 255 1.0 3.0 0.00 0.71 0.00 85 1008.7
20260903121922 51 252 0.0 2.0 0.00 0.71 0.00 85 1008.6
20260903120919 50 242 1.0 2.0 0.00 0.71 0.00 85 1008.6
20260903115916 51 242 1.0 2.0 0.00 0.71 0.00 85 1008.7
20260903115417 51 242 1.0 2.0 0.00 0.71 0.00 85 1008.6
20260903114914 51 242 1.0 2.0 0.00 0.71 0.00 85 1008.7
20260903114414 51 242 0.0 2.0 0.00 0.71 0.00 85 1008.7
20260903113913 51 242 0.0 2.0 0.00 0.71 0.00 85 1008.6
20260903113411 51 242 0.0 2.0 0.00 0.71 0.00 85 1008.7
20260903112912 50 242 1.0 2.0 0.00 0.71 0.00 85 1008.9
20260903112412 50 242 0.0 2.0 0.00 0.71 0.00 85 1008.7
20260903111411 50 243 0.0 2.0 0.00 0.71 0.00 85 1008.7
20260903110908 51 243 1.0 2.0 0.00 0.71 0.00 85 1008.7
20260903105407 51 243 0.0 2.0 0.00 0.71 0.00 85 1008.5
20260903104906 51 243 0.0 2.0 0.00 0.71 0.00 85 1008.6
20260903104408 51 243 1.0 4.0 0.00 0.71 0.00 85 1008.9
20260903103409 51 319 0.0 2.0 0.00 0.71 0.00 85 1009.1
20260903102904 51 319 0.0 1.0 0.00 0.71 0.00 85 1009.1
20260903102410 51 319 0.0 1.0 0.00 0.71 0.00 85 1009.0
20260903101906 51 319 0.0 1.0 0.00 0.71 0.00 85 1008.7
20260903101403 51 319 0.0 1.0 0.00 0.71 0.00 85 1008.7
20260903100903 51 319 0.0 3.0 0.00 0.71 0.00 85 1008.7
20260903100403 51 319 1.0 3.0 0.00 0.71 0.00 85 1008.6
20260903095903 51 319 1.0 4.0 0.00 0.71 0.00 84 1008.6
20260903095405 51 319 1.0 4.0 0.00 0.71 0.00 84 1008.6
20260903094902 52 319 1.0 3.0 0.00 0.71 0.00 84 1008.6
20260903094404 52 306 1.0 4.0 0.00 0.71 0.00 84 1008.6
20260903093902 52 306 2.0 4.0 0.00 0.71 0.00 84 1008.3
20260903093402 52 280 2.0 4.0 0.00 0.71 0.00 84 1008.1